Regional Weather Roundup
Issued by NWS

Home | Current Version | Previous Version | Text Only | Print | Product List | Glossary Off
Versions: 1 2 3 4 5 6 7 8 9 10 11 12 13 14 15 16 17 18 19 20 21 22 23 24 25 26 27 28 29 30 31 32 33 34 35 36 37 38 39 40 41 42 43 44 45 46 47 48 49 50

000
ASUS45 KSLC 221710
RWRUT

UTAH REGIONAL WEATHER ROUNDUP
NATIONAL WEATHER SERVICE SALT LAKE CITY UT
1100 AM MDT SUN APR 22 2018

UTZ001>011-023>025-221800-

NORTHERN UTAH

CITY           SKY/WX    TMP DP  RH WIND       PRES   REMARKS
BRIGHAM CITY   SUNNY     60  36  39 CALM      30.13F
HILL AFB       SUNNY     62  33  33 NE6       30.13F
LOGAN          SUNNY     62  38  40 N6        30.12F
OGDEN          SUNNY     64  29  26 W5        30.11F
SALT LAKE CITY MOSUNNY   66  32  28 CALM      30.10F
TOOELE VALLEY  SUNNY     63  37  39 E3        30.12F
WENDOVER       SUNNY     59  30  33 SE5       30.11F
HEBER CITY       N/A     54  27  35 CALM      30.17F
WEST JORDAN    SUNNY     63  36  35 SE7       30.13F

$$

UTZ011>015-024>027-221800-

CENTRAL/NORTHEAST UTAH

CITY           SKY/WX    TMP DP  RH WIND       PRES   REMARKS
PROVO AIRPORT  SUNNY     58  36  43 SW5       30.15F
MOAB/CANYONLAN SUNNY     64  34  32 E10       30.13F
DELTA          SUNNY     61  32  33 CALM      30.13F
PRICE          SUNNY     60  26  27 S3        30.18F
ROOSEVELT      SUNNY     59  32  36 E5        30.21F
VERNAL         SUNNY     59  33  37 CALM      30.18F

$$

UTZ013>016-019>022-027-221800-

SOUTHERN UTAH

CITY           SKY/WX    TMP DP  RH WIND       PRES   REMARKS
BRYCE CANYON   SUNNY     56  25  30 VRB6      30.25S
CEDAR CITY     SUNNY     59  30  33 VRB3      30.14F
MILFORD          N/A     57  36  45 MISG      30.14F
ST GEORGE      SUNNY     66  28  24 CALM      30.07F
HANKSVILLE     SUNNY     63  32  31 SE6       30.16F
BLANDING         N/A     67  27  22 E7G16     30.23S

$$

REGIONAL REPORTS     COLORADO/ARIZONA

CITY           SKY/WX    TMP DP  RH WIND       PRES   REMARKS
CRAIG, CO      SUNNY     56  36  47 NE3       30.22F
GRAND JUNCTION SUNNY     59  36  42 VRB5      30.19F
RIFLE, CO      SUNNY     53  39  59 CALM      30.23F
MONTROSE, CO   SUNNY     55  31  39 CALM      30.22F
CORTEZ, CO     MOSUNNY   63  22  20 S15       30.17S
COLORADO CITY    N/A     68  28  22 CALM      30.15F
PAGE, AZ       MOSUNNY   64  31  28 N7        30.13S
GRAND CANYON   SUNNY     64  19  17 S9        30.21S
KINGMAN, AZ    MOSUNNY   76  23  14 N6        30.04S
FLAGSTAFF, AZ  SUNNY     59  19  21 SE9       30.22F

$$

REGIONAL REPORTS    NEVADA/IDAHO/WYOMING

CITY           SKY/WX    TMP DP  RH WIND       PRES   REMARKS
LAS VEGAS, NV  PTSUNNY   78  26  14 S3        29.99S
ELY, NY        SUNNY     64  22  20 VRB3      30.15F
ELKO, NV       SUNNY     58  32  37 CALM      30.11F
POCATELLO, ID  SUNNY     59  34  39 W7        30.12F
BURLEY, ID     SUNNY     53  33  46 VRB3      30.11F
FORT BRIDGER,    N/A     59  27  29 CALM      30.25F
EVANSTON, WY   SUNNY     58  26  29 VRB5      30.22F
ROCK SPRINGS,  SUNNY     56  19  23 VRB3      30.21F
KEMMERER, WY   SUNNY     54  27  35 CALM      30.23F

$$



USA.gov is the U.S. government's official web portal to all federal, state and local government web resources and services.